User: anonymous   Login
Location: Unspecified
(0.0000°N, 0.0000°E)
Time: 22:27:58
(UTC+01:00)
Language:

ISS - Orbit

View from above orbital plane
View from above orbital plane
View from above satellite
View from above satellite

Ground track
Ground track

The orbit data is extracted from the following two-line orbital elements,

1 25544U 98067A   24064.67375914  .00015250  00000-0  27830-3 0  9994
2 25544  51.6410 113.3520 0005820 325.6402 181.8190 15.49612634442347
Epoch (UTC): 04 March 2024 16:10:12
Eccentricity: 0.0005820
inclination: 51.6410°
perigee height: 414 km
apogee height: 422 km
right ascension of ascending node: 113.3520°
argument of perigee: 325.6402°
revolutions per day: 15.49612634
mean anomaly at epoch: 181.8190°
orbit number at epoch: 44234

The dashed part of the orbit path shows where the satellite is in the earth's shadow,  

DLR